COSMOS 1275 DEB, 42115

Orbit data source: Space-Track

COSMOS 1275 DEB, 42115 is space debris in LEO originally from a launch on Thu, 04 Jun 1981 UTC launched from the Plesetsk Missile And Space Complex (PKMTR). Debris objects in space refer to the collection of defunct objects orbiting the Earth. Examples of debris include non-operational satellites, rocket bodies, and fragments generated from explosions, collisions, or faulty payload assembly.

Loading next visibility...
Identifier
42115, 1981-053QB
Orbit
LEO
Country
Flag of CISCIS
Related business
Manufacturer
Unknown
Mission
Spacecraft
Bus & Motor
Unknown
Mass
Unknown
Launch date (UTC)
1981-06-04 (44 years ago)
Launch vehicle
Unknown
Launch site
Plesetsk Missile And Space Complex (PKMTR)
Object type
Payload
Rocket body
Debris
Shape & HBR
Unknown shape, 0.1 m
Radar Cross Section
Small (<0.1 m²)

Expand to show TLE details & history
Last TLE update: 4 days ago

TLE from 4 days ago
0 COSMOS 1275 DEB
1 42115U 81053QB  25301.10724546  .00004391  00000-0  24615-2 0  9997
2 42115  82.6578  67.6995 0060636 237.0706 122.4628 14.09522354609947
Epoch: 2025-10-28T02:34Z
TLE epoch observation values (Epoch: 2025-10-28T02:34:26.007Z)
Latitude
-0.00006°
Longitude
-7.60836°
Altitude
887.701 km
Speed
7.396 km/s
True Right ascension
04h 30m 47s
True Declination
0° 00' 00"
Sunlit
Object was in full shadow at epoch
Visualization orbit readout
Latitude
Unknown
Longitude
Unknown
Altitude
Unknown
Speed
Unknown
Apparent Right ascension
Unknown
Apparent Declination
Unknown
Sunlit
N/A
Visualization observer readout
Local Sidereal Time
01:34:31
Azimuth
Unknown
Elevation
Unknown
Doppler factor
Unknown
Orbital elements
Apogee altitude
901.997 km
Perigee altitude
814.241 km
Semi-major axis
7,236.256 km
Eccentricity
0.00606
Inclination
82.6578°
RAAN
67.6995°
Arg. of periapsis
237.0706°
True anomaly
123.04668°
Mean anomaly
122.4628°
Eccentric anomaly
122.75498°
Mean motion
3.52592 °/min
Orbital period
102.1 mins
BSTAR
0.0024615
Loading maneuver chart data...
Computing Atmospheric mass density...
Loading historical data...
Loading historical data...
Loading historical data...
Loading historical data...
Loading historical data...
Loading historical data...
Loading historical data...

Documentation

Showing up to 5 results
|